Track ROCSAT 2 now! 10-day predictions ROCSAT 2 is classified as:
1 28254U 04018A 26253.79353694 -.00000074 00000-0 -20710-4 0 9995 2 28254 98.8502 218.6512 0003307 106.2530 318.4309 14.01233610140745